Weather History for Louisburg, NC

Change the Weather History Date:

Tuesday, February 25, 2014

  Actual Average (KRDU) Record (KRDU)
Temperature  
Mean Temperature 42 °F 46 °F  
Max Temperature 53 °F 58 °F 82 °F (1930)
Min Temperature 30 °F 35 °F 8 °F (1967)
Degree Days  
Heating Degree Days 24 19  
Month to date heating degree days 522  
Since 1 July heating degree days 2519  
Cooling Degree Days 0 0  
Month to date cooling degree days 0  
Year to date cooling degree days 0  
Moisture  
Dew Point 24 °F    
Average Humidity 55    
Maximum Humidity 75    
Minimum Humidity 28    
Precipitation  
Precipitation 0.00 in 0.12 in 1.27 in (1979)
Month to date precipitation 2.87  
Year to date precipitation 6.37  
Snow  
Snow 0.00 in 0.00 in 5.00 in (1894)
Month to date snowfall 1.7  
Since 1 July snowfall 5.3  
Snow Depth -    
Sea Level Pressure  
Sea Level Pressure 30.03 in    
Wind  
Wind Speed 1 mph (NNE)    
Max Wind Speed 8 mph    
Max Gust Speed -    
Visibility 10 miles    
Events      
T = Trace of Precipitation, MM = Missing Value Source: NWS Daily Summary

Daily Weather History Graph

Daily Weather History Graph

Search for Another Location

Airport:

Trip Planner

Search our weather history database for the weather conditions in past years. The results will help you decide how hot, cold, wet, or windy it might be!

Date:

Astronomy

Feb. 25, 2014 Rise Set
Actual Time 6:48 AM EST 6:04 PM EST
Civil Twilight 6:22 AM EST 6:30 PM EST
Nautical Twilight 5:53 AM EST 7:00 PM EST
Astronomical Twilight 5:23 AM EST 7:29 PM EST
Moon 3:36 AM EST (2/25) 2:13 PM EST (2/25)
Length of Visible Light 12h 07m
Length of Day
11h 15m
Waning Crescent, 18% of the Moon is Illuminated
Feb 25
Waning Crescent
Mar 1
New
Mar 8
First Quarter
Mar 16
Full
Mar 23
Last Quarter

Hourly Weather History & Observations

Time (EST) Temp. Windchill Dew Point Humidity Pressure Visibility Wind Dir Wind Speed Gust Speed Precip Events Conditions
12:15 AM 37.4 °F - 17.6 °F 45% 30.15 in 10.0 mi Calm Calm - N/A   Clear
12:35 AM 37.4 °F - 17.6 °F 45% 30.14 in 10.0 mi Calm Calm - N/A   Clear
12:55 AM 35.6 °F - 17.6 °F 48% 30.14 in 10.0 mi Calm Calm - N/A   Clear
1:15 AM 35.6 °F - 19.4 °F 52% 30.14 in 10.0 mi Calm Calm - N/A   Clear
1:35 AM 35.6 °F - 19.4 °F 52% 30.13 in 10.0 mi Calm Calm - N/A   Clear
1:55 AM 35.6 °F - 17.6 °F 48% 30.12 in 10.0 mi Calm Calm - N/A   Clear
2:15 AM 33.8 °F - 21.2 °F 60% 30.11 in 10.0 mi Calm Calm - N/A   Clear
2:30 AM 33.8 °F - 21.2 °F 60% 30.10 in 10.0 mi Calm Calm - N/A   Clear
2:55 AM 32.0 °F - 19.4 °F 60% 30.10 in 10.0 mi Calm Calm - N/A   Clear
3:15 AM 32.0 °F - 23.0 °F 69% 30.09 in 10.0 mi Calm Calm - N/A   Clear
4:55 AM 32.0 °F - 23.0 °F 69% 30.08 in 10.0 mi Calm Calm - N/A   Clear
5:15 AM 32.0 °F - 23.0 °F 69% 30.08 in 10.0 mi Calm Calm - N/A   Clear
5:35 AM 32.0 °F - 23.0 °F 69% 30.08 in 10.0 mi Calm Calm - N/A   Clear
5:55 AM 30.2 °F - 19.4 °F 64% 30.08 in 10.0 mi Calm Calm - N/A   Clear
6:15 AM 30.2 °F - 23.0 °F 75% 30.08 in 10.0 mi Calm Calm - N/A   Clear
6:35 AM 30.2 °F - 23.0 °F 75% 30.09 in 10.0 mi Calm Calm - N/A   Clear
6:55 AM 30.2 °F - 21.2 °F 69% 30.09 in 10.0 mi Calm Calm - N/A   Clear
7:15 AM 32.0 °F - 23.0 °F 69% 30.09 in 10.0 mi Calm Calm - N/A   Clear
7:35 AM 33.8 °F - 23.0 °F 65% 30.09 in 10.0 mi Calm Calm - N/A   Clear
7:55 AM 33.8 °F - 26.6 °F 75% 30.09 in 10.0 mi Calm Calm - N/A   Clear
8:15 AM 37.4 °F 34.9 °F 28.4 °F 70% 30.08 in 10.0 mi SE 3.5 mph - N/A   Clear
8:35 AM 39.2 °F 37.0 °F 30.2 °F 70% 30.08 in 10.0 mi ENE 3.5 mph - N/A   Mostly Cloudy
8:55 AM 41.0 °F - 32.0 °F 70% 30.07 in 10.0 mi Calm Calm - N/A   Overcast
9:15 AM 41.0 °F - 32.0 °F 70% 30.07 in 10.0 mi Calm Calm - N/A   Overcast
9:35 AM 41.0 °F - 32.0 °F 70% 30.06 in 10.0 mi Calm Calm - N/A   Overcast
9:55 AM 42.8 °F 40.1 °F 32.0 °F 66% 30.06 in 10.0 mi North 4.6 mph - N/A   Overcast
10:15 AM 42.8 °F 41.1 °F 32.0 °F 66% 30.05 in 10.0 mi North 3.5 mph - N/A   Overcast
10:35 AM 44.6 °F - 32.0 °F 61% 30.04 in 10.0 mi Calm Calm - N/A   Overcast
10:55 AM 44.6 °F - 32.0 °F 61% 30.04 in 10.0 mi Calm Calm - N/A   Overcast
11:15 AM 44.6 °F - 32.0 °F 61% 30.03 in 10.0 mi Calm Calm - N/A   Overcast
11:35 AM 46.4 °F 45.2 °F 32.0 °F 57% 30.04 in 10.0 mi NNW 3.5 mph - N/A   Overcast
12:15 PM 48.2 °F - 32.0 °F 54% 30.02 in 10.0 mi North 4.6 mph - N/A   Overcast
12:35 PM 48.2 °F - 30.2 °F 50% 30.01 in 10.0 mi NNW 3.5 mph - N/A   Overcast
12:55 PM 48.2 °F - 30.2 °F 50% 30.00 in 10.0 mi North 6.9 mph - N/A   Overcast
1:15 PM 50.0 °F - 28.4 °F 43% 29.99 in 10.0 mi NNE 4.6 mph - N/A   Scattered Clouds
1:35 PM 51.8 °F - 26.6 °F 38% 29.98 in 10.0 mi North 4.6 mph - N/A   Clear
1:55 PM 51.8 °F - 26.6 °F 38% 29.98 in 10.0 mi Calm Calm - N/A   Clear
2:15 PM 53.6 °F - 23.0 °F 30% 29.97 in 10.0 mi NNE 3.5 mph - N/A   Scattered Clouds
2:35 PM 53.6 °F - 21.2 °F 28% 29.97 in 10.0 mi NW 4.6 mph - N/A   Scattered Clouds
2:55 PM 51.8 °F - 19.4 °F 28% 29.97 in 10.0 mi North 5.8 mph - N/A   Clear
3:15 PM 51.8 °F - 19.4 °F 28% 29.97 in 10.0 mi North 8.1 mph - N/A   Clear
3:35 PM 51.8 °F - 19.4 °F 28% 29.97 in 10.0 mi NNE 6.9 mph - N/A   Clear
3:55 PM 50.0 °F - 17.6 °F 28% 29.98 in 10.0 mi NNE 3.5 mph - N/A   Clear
4:15 PM 50.0 °F - 19.4 °F 30% 29.98 in 10.0 mi North 3.5 mph - N/A   Clear
4:35 PM 50.0 °F - 19.4 °F 30% 29.98 in 10.0 mi Calm Calm - N/A   Clear
4:55 PM 50.0 °F - 19.4 °F 30% 29.98 in 10.0 mi Calm Calm - N/A   Clear
5:15 PM 50.0 °F - 19.4 °F 30% 29.98 in 10.0 mi NE 3.5 mph - N/A   Clear
5:35 PM 50.0 °F - 21.2 °F 32% 29.98 in 10.0 mi NE 3.5 mph - N/A   Clear
5:50 PM 48.2 °F - 21.2 °F 34% 29.99 in 10.0 mi NE 3.5 mph - N/A   Clear
6:15 PM 42.8 °F - 26.6 °F 53% 29.99 in 10.0 mi Calm Calm - N/A   Clear
6:35 PM 41.0 °F - 26.6 °F 57% 29.98 in 10.0 mi Calm Calm - N/A   Clear
6:55 PM 41.0 °F - 24.8 °F 53% 29.99 in 10.0 mi Calm Calm - N/A   Clear
7:15 PM 39.2 °F - 28.4 °F 65% 29.99 in 10.0 mi Calm Calm - N/A   Clear
7:35 PM 37.4 °F 34.9 °F 26.6 °F 65% 30.00 in 10.0 mi North 3.5 mph - N/A   Clear
7:55 PM 41.0 °F - 26.6 °F 57% 30.00 in 10.0 mi Calm Calm - N/A   Clear
8:15 PM 39.2 °F - 24.8 °F 56% 29.99 in 10.0 mi Calm Calm - N/A   Clear
8:35 PM 37.4 °F - 23.0 °F 56% 30.00 in 10.0 mi Calm Calm - N/A   Clear
8:55 PM 35.6 °F - 26.6 °F 70% 30.00 in 10.0 mi Calm Calm - N/A   Clear
9:15 PM 35.6 °F - 26.6 °F 70% 30.00 in 10.0 mi Calm Calm - N/A   Clear
9:35 PM 35.6 °F - 26.6 °F 70% 30.01 in 10.0 mi Calm Calm - N/A   Clear
9:55 PM 35.6 °F - 23.0 °F 60% 30.01 in 10.0 mi Calm Calm - N/A   Clear
10:15 PM 35.6 °F - 23.0 °F 60% 30.00 in 10.0 mi Calm Calm - N/A   Clear
10:30 PM 33.8 °F - 23.0 °F 65% 30.00 in 10.0 mi Calm Calm - N/A   Clear
10:55 PM 33.8 °F - 24.8 °F 70% 30.00 in 10.0 mi Calm Calm - N/A   Clear
11:15 PM 35.6 °F - 21.2 °F 56% 30.00 in 10.0 mi Calm Calm - N/A   Clear
11:35 PM 35.6 °F - 24.8 °F 65% 30.00 in 10.0 mi Calm Calm - N/A   Clear
11:55 PM 33.8 °F - 23.0 °F 65% 29.99 in 10.0 mi Calm Calm - N/A   Mostly Cloudy